Date String (YYYY-MM-DD hh:mm:ss) UTC,Instrument flags,absolute air pressure of the measurement (hPa),sample flow rate (lpm),inlet stack bypass flow (lpm),air temperature of the measurement (°C),ambient temperature measured by the external sensor (°C),aerosol sample conditioner tube jacket temperature (°C),OPC LED temperature (°C),internal box temperature (°C),relative humidity of the measurement (%),span deviation,mass concentration of particles derived from Lorenz-Mie calculation of OPC scattering (μg/m³),mass concentration of particles derived from Lorenz-Mie calculation of OPC scattering (μg/m³),mass concentration of particles derived from Lorenz-Mie calculation of OPC scattering (μg/m³)
DateTimeUTC,F1_M11,P_M11,Q1_M11,Q2_M11,T1_M11,T2_M11,T3_M11,T4_M11,T5_M11,U1_M11,ZSPAN_M11,X0_M11,X2_M11,X1_M11
2024-01-05 08:00:00,SystemResetWarning,0824.4,5.00,000.00,018.7,017.6,000.0,027.1,020.0,17.8,0002.6,0009.02,0005.71,0005.29
2024-01-05 08:01:00,SystemResetWarning,0824.4,4.99,000.00,018.7,017.5,000.0,027.1,020.0,17.7,0002.6,0009.26,0005.72,0005.29
2024-01-05 08:02:00,SystemResetWarning,0824.4,5.00,000.00,018.7,017.5,000.0,027.1,020.0,17.7,0002.5,0009.65,0005.74,0005.29
2024-01-05 08:03:00,SystemResetWarning,0824.4,5.01,000.00,018.7,017.5,000.0,027.1,020.0,17.7,0002.3,0009.54,0005.71,0005.30
2024-01-05 08:04:00,SystemResetWarning,0824.4,5.01,000.00,018.7,017.5,000.0,027.1,020.0,17.8,0002.1,0009.67,0005.72,0005.29
2024-01-05 08:05:00,SystemResetWarning,0824.4,5.00,000.00,018.7,017.5,000.0,027.1,020.0,17.8,0001.8,0009.47,0005.73,0005.29
2024-01-05 08:06:00,SystemResetWarning,0824.4,4.99,000.00,018.7,017.5,000.0,027.1,020.0,17.9,0001.3,0009.39,0005.73,0005.29
2024-01-05 08:07:00,SystemResetWarning,0824.4,4.99,000.00,018.7,017.5,000.0,027.1,020.0,17.9,0001.2,0009.40,0005.73,0005.29
2024-01-05 08:08:00,SystemResetWarning,0824.4,5.00,000.00,018.7,017.5,000.0,027.1,020.0,17.9,0001.6,0009.31,0005.70,0005.29
2024-01-05 08:09:00,SystemResetWarning,0824.4,5.01,000.00,018.7,017.5,000.0,027.1,020.0,17.9,0001.5,0009.17,0005.67,0005.28
2024-01-05 08:10:00,SystemResetWarning,0824.4,5.01,000.00,018.7,017.5,000.0,027.1,020.0,17.9,0001.6,0009.15,0005.65,0005.28
2024-01-05 08:11:00,SystemResetWarning,0824.4,5.00,000.00,018.7,017.5,000.0,027.1,020.0,17.9,0001.7,0009.27,0005.66,0005.29
2024-01-05 08:12:00,SystemResetWarning,0824.4,5.00,000.00,018.7,017.5,000.0,027.1,020.0,18.0,0001.7,0009.11,0005.64,0005.30
2024-01-05 08:13:00,SystemResetWarning,0824.5,5.00,000.00,018.7,017.5,000.0,027.1,020.0,18.0,0002.0,0008.61,0005.62,0005.32
2024-01-05 08:14:00,SystemResetWarning,0824.4,4.99,000.00,018.6,017.5,000.0,027.1,020.0,18.0,0001.5,0008.65,0005.64,0005.32
2024-01-05 08:15:00,SystemResetWarning,0824.4,5.01,000.00,018.6,017.5,000.0,027.1,020.0,18.1,0001.5,0008.57,0005.65,0005.31
2024-01-05 08:16:00,SystemResetWarning,0824.5,5.01,000.00,018.6,017.4,000.0,027.1,020.0,18.1,0001.4,0008.48,0005.63,0005.30
2024-01-05 08:17:00,SystemResetWarning,0824.5,5.00,000.00,018.6,017.4,000.0,027.1,020.0,18.1,0001.5,0008.43,0005.63,0005.29
2024-01-05 08:18:00,SystemResetWarning,0824.4,4.99,000.00,018.6,017.5,000.0,027.1,020.0,18.1,0001.5,0008.44,0005.64,0005.29
2024-01-05 08:19:00,SystemResetWarning,0824.5,4.99,000.00,018.6,017.5,000.0,027.1,020.0,18.1,0001.2,0008.49,0005.65,0005.28
2024-01-05 08:20:00,SystemResetWarning,0824.4,4.99,000.00,018.6,017.5,000.0,027.1,020.0,18.1,0001.2,0008.99,0005.68,0005.29
2024-01-05 08:21:00,SystemResetWarning,0824.4,5.01,000.00,018.7,017.5,000.0,027.1,020.0,18.1,0001.1,0009.49,0005.70,0005.29
2024-01-05 08:22:00,SystemResetWarning,0824.4,5.01,000.00,018.7,017.4,000.0,027.1,020.0,18.1,0001.5,0009.44,0005.71,0005.28
2024-01-05 08:23:00,SystemResetWarning,0824.4,5.00,000.00,018.6,017.4,000.0,027.1,020.0,18.2,0001.8,0009.49,0005.73,0005.28
2024-01-05 08:24:00,SystemResetWarning,0824.4,5.00,000.00,018.7,017.4,000.0,027.1,020.0,18.2,0001.6,0009.77,0005.75,0005.27
2024-01-05 08:25:00,SystemResetWarning,0824.4,4.99,000.00,018.6,017.4,000.0,027.1,020.0,18.3,0002.1,0009.88,0005.75,0005.26
2024-01-05 08:26:00,SystemResetWarning,0824.4,4.99,000.00,018.6,017.4,000.0,027.1,020.0,18.3,0002.3,0009.83,0005.72,0005.25
2024-01-05 08:27:00,SystemResetWarning,0824.4,5.00,000.00,018.6,017.4,000.0,027.1,020.0,18.3,0002.6,0009.85,0005.72,0005.26
2024-01-05 08:28:00,SystemResetWarning,0824.4,4.99,000.00,018.6,017.4,000.0,027.1,020.0,18.3,0002.4,0009.83,0005.71,0005.27
2024-01-05 08:29:00,SystemResetWarning,0824.4,5.00,000.00,018.7,017.4,000.0,027.1,020.0,18.3,0002.1,0009.77,0005.70,0005.28
2024-01-05 08:30:00,SystemResetWarning,0824.3,5.01,000.00,018.6,017.4,000.0,027.1,020.0,18.4,0001.9,0009.67,0005.67,0005.28
2024-01-05 08:31:00,SystemResetWarning,0824.4,5.01,000.00,018.6,017.5,000.0,027.1,020.0,18.4,0002.0,0009.94,0005.67,0005.29
2024-01-05 08:32:00,SystemResetWarning,0824.3,4.99,000.00,018.6,017.5,000.0,027.1,020.0,18.4,0001.8,0009.33,0005.65,0005.29
2024-01-05 08:33:00,SystemResetWarning,0824.3,5.00,000.00,018.6,017.5,000.0,027.1,020.0,18.5,0000.9,0009.33,0005.65,0005.30
2024-01-05 08:34:00,SystemResetWarning,0824.3,4.99,000.00,018.6,017.4,000.0,027.1,020.0,18.5,0000.8,0009.35,0005.66,0005.32
2024-01-05 08:35:00,SystemResetWarning,0824.3,5.01,000.00,018.6,017.4,000.0,027.1,020.0,18.5,0000.7,0009.11,0005.64,0005.33
2024-01-05 08:36:00,SystemResetWarning,0824.3,5.00,000.00,018.6,017.4,000.0,027.1,020.0,18.5,0000.5,0009.05,0005.65,0005.34
2024-01-05 08:37:00,SystemResetWarning,0824.3,5.01,000.00,018.6,017.4,000.0,027.1,020.0,18.5,0000.5,0009.09,0005.67,0005.37
2024-01-05 08:38:00,SystemResetWarning,0824.3,5.01,000.00,018.6,017.5,000.0,027.1,020.0,18.5,0000.8,0009.02,0005.68,0005.38
2024-01-05 08:39:00,SystemResetWarning,0824.3,5.00,000.00,018.6,017.5,000.0,027.1,020.0,18.5,0001.3,0009.04,0005.69,0005.39
2024-01-05 08:40:00,SystemResetWarning,0824.3,4.99,000.00,018.6,017.5,000.0,027.1,020.0,18.5,0001.9,0009.16,0005.72,0005.41
2024-01-05 08:41:00,SystemResetWarning,0824.3,4.99,000.00,018.6,017.5,000.0,027.1,020.0,18.4,0002.1,0009.24,0005.76,0005.44
2024-01-05 08:42:00,SystemResetWarning,0824.3,5.00,000.00,018.6,017.5,000.0,027.1,020.0,18.4,0002.1,0009.41,0005.80,0005.45
2024-01-05 08:43:00,SystemResetWarning,0824.3,5.00,000.00,018.6,017.5,000.0,027.1,020.0,18.4,0002.1,0009.35,0005.79,0005.47
2024-01-05 08:44:00,SystemResetWarning,0824.3,5.00,000.00,018.6,017.5,000.0,027.1,020.0,18.4,0002.6,0009.89,0005.78,0005.47
2024-01-05 08:45:00,SystemResetWarning,0824.3,5.01,000.00,018.6,017.5,000.0,027.1,020.0,18.5,0002.5,0009.95,0005.78,0005.47
2024-01-05 08:46:00,SystemResetWarning,0824.3,5.01,000.00,018.6,017.5,000.0,027.1,020.0,18.5,0002.5,0010.00,0005.80,0005.48
2024-01-05 08:47:00,SystemResetWarning,0824.3,5.00,000.00,018.7,017.6,000.0,027.1,020.2,18.5,0002.9,0010.47,0005.81,0005.50
2024-01-05 08:48:00,SystemResetWarning,0824.3,5.00,000.00,018.8,018.3,000.0,027.1,020.6,18.4,0002.5,0010.84,0005.83,0005.50
2024-01-05 08:49:00,SystemResetWarning,0824.3,4.98,000.00,018.9,018.8,000.0,027.1,020.7,18.4,0002.3,0010.90,0005.84,0005.50
2024-01-05 08:50:00,SystemResetWarning,0824.3,5.01,000.00,018.9,018.7,000.0,027.1,020.4,18.4,0002.0,0011.28,0005.85,0005.51
2024-01-05 08:51:00,SystemResetWarning,0824.3,5.01,000.00,018.9,018.7,000.0,027.1,020.3,18.4,0001.9,0012.19,0005.85,0005.51
2024-01-05 08:52:00,SystemResetWarning,0824.3,4.99,000.00,018.9,018.5,000.0,027.1,020.2,18.5,0001.6,0012.19,0005.85,0005.52
2024-01-05 08:53:00,SystemResetWarning,0824.3,4.99,000.00,018.9,018.4,000.0,027.1,020.1,18.5,0001.4,0011.56,0005.82,0005.53
2024-01-05 08:54:00,SystemResetWarning,0824.3,4.98,000.00,018.8,018.3,000.0,027.1,020.1,18.5,0000.9,0011.41,0005.83,0005.54
2024-01-05 08:55:00,SystemResetWarning,0824.3,5.01,000.00,018.8,018.2,000.0,027.1,020.0,18.5,0001.0,0010.90,0005.87,0005.56
2024-01-05 08:56:00,SystemResetWarning,0824.3,5.01,000.00,018.8,018.1,000.0,027.1,020.0,18.6,0001.2,0010.89,0005.90,0005.57
2024-01-05 08:57:00,SystemResetWarning,0824.3,5.00,000.00,018.8,018.1,000.0,027.1,020.0,18.6,0001.5,0011.11,0005.95,0005.58
2024-01-05 08:58:00,SystemResetWarning,0824.3,5.00,000.00,018.8,018.0,000.0,027.1,020.0,18.6,0000.8,0010.82,0005.96,0005.59
2024-01-05 08:59:00,SystemResetWarning,0824.3,4.99,000.00,018.8,018.0,000.0,027.1,020.0,18.6,0001.2,0010.33,0005.95,0005.60
